Helicity
86 90 92 63 71 73 62 74 121 140 137 266 274 132 130 272 375 364 286 241 256 251
133 112 105 86 77 14 94 132 87 27 90 188 80 124 186 241 344 333 324 277 269 259
192 185 86 82 66 64 92 68 65 -6 -13 66 133 206 -10 116 248 360 320 290 272 254
214 190 86 86 114 134 83 -4 -25 -19 35 14 139 94 46 23 18 314 262 241 245 206
137 155 67 148 223 151 254 92 1 56 -4 17 77 184 149 -87 169 199 201 211 195 214
96 199 109 106 189 132 174 227 179 -41 12 101 85 98 190 174 52 167 180 166 164 182
122 92 121 96 125 128 111 165 196 87 94 100 86 50 27 51 79 121 160 165 175 176
53 115 133 126 128 53 107 193 157 187 271 327 305 168 339 176 32 124 170 182 184 172
52 41 158 214 204 114 126 156 149 151 155 302 357 365 268 190 108 121 191 216 144 108
15 50 93 122 219 194 149 186 156 127 117 95 153 335 286 219 194 145 126 157 183 85
14 30 53 61 142 198 160 186 238 148 164 171 122 230 330 343 136 86 218 189 211 227
17 -14 44 76 93 139 130 155 195 201 160 131 158 333 325 248 149 124 220 263 295 191
9 -14 15 67 86 91 94 76 88 154 154 188 198 307 375 336 171 204 207 273 342 366
25 8 5 49 70 99 93 91 110 122 183 182 200 243 420 447 257 225 329 342 321 417
Wind_Speed
81 81 87 94 100 112 108 103 99 88 101 93 101 127 112 99 93 73 68 60 49 45
72 77 81 93 88 82 84 87 95 88 83 99 108 135 95 108 99 87 74 66 55 50
69 63 51 78 71 68 61 61 75 77 81 96 118 105 121 94 104 95 84 72 62 54
93 49 46 67 68 68 70 74 82 81 67 91 97 115 142 107 114 98 84 74 63 62
93 34 50 54 57 56 56 59 75 72 71 81 104 94 101 129 97 100 86 74 66 63
93 78 53 47 48 47 50 53 58 69 71 78 85 104 107 113 97 93 80 68 69 65
88 87 72 69 55 56 53 51 58 61 61 68 72 88 81 74 92 78 74 66 65 64
88 83 81 74 73 56 53 44 44 43 18 33 39 55 71 84 94 83 77 72 66 63
86 82 77 77 71 67 61 53 49 39 31 30 42 55 52 75 79 74 65 67 67 63
87 81 78 73 70 68 66 58 47 43 37 38 44 50 56 68 73 72 65 69 64 69
87 81 74 72 69 68 62 59 53 47 44 44 38 47 59 67 61 78 79 68 60 56
83 81 75 72 69 66 61 56 53 50 49 46 44 44 42 41 52 43 33 43 54 53
78 76 73 69 64 61 55 52 48 48 47 47 46 48 44 40 37 38 38 35 35 35
74 71 70 66 61 58 54 52 49 46 47 48 50 49 47 45 34 29 27 31 34 37
Wind_Direction
337 329 316 302 290 276 264 253 257 258 253 248 239 241 235 232 232 229 232 234 230 234
348 340 329 305 294 287 262 253 255 258 260 250 240 239 238 231 231 232 230 235 233 234
356 354 352 304 291 285 271 260 254 259 261 251 238 234 247 247 233 230 232 234 234 235
348 2 304 305 296 286 276 262 259 260 267 247 249 240 237 247 241 228 230 231 231 236
340 333 317 315 307 297 287 274 261 270 262 257 248 242 241 238 260 228 229 229 231 235
341 326 316 315 311 310 295 289 289 246 252 261 250 244 233 232 237 223 227 229 233 236
332 336 324 331 315 320 316 300 291 271 268 257 243 234 239 241 235 230 230 232 235 239
333 331 331 330 338 330 331 318 307 301 314 271 253 250 239 238 233 235 236 238 241 244
335 335 332 335 332 335 332 325 327 333 316 282 263 261 266 250 246 244 242 241 242 245
339 337 336 333 331 337 342 332 322 322 327 317 271 271 267 258 252 247 246 243 246 245
344 339 333 337 336 334 333 335 327 324 319 323 316 291 279 267 273 258 240 243 246 249
348 343 338 337 337 332 332 333 328 323 323 315 314 312 294 280 273 269 254 254 258 258
349 346 344 340 337 338 335 337 330 326 324 326 322 315 303 296 283 273 264 273 273 276
347 348 348 342 342 343 340 345 342 333 328 334 333 325 317 298 289 291 285 287 280 278